Voltar ao catálogo

ATLAS CENTAUR 2 R/B

AtivoLEO
NORAD 694·ROCKET BODY·🇺🇸 United States

Lançado Nov 27, 1963 de Cape Canaveral Space Force Station

Loading…

Próximas Passagens (próximas 24 horas)

TLE

AtualizadoSource: Space-Track

Época: Sep 14, 2026, 23:01 UTC

1 00694U 63047A   26257.95920826  .00002192  00000-0  25413-3 0  9994
2 00694  30.3554 217.2947 0545042 309.2945  46.0521 14.12691050158400

Acompanhe ATLAS CENTAUR 2 R/B em tempo real com AllMySat

Download on the App Store